Acapulco, Mexico

9:02 PM CST on November 21, 2017 (GMT -0600)
Gen Juan N Alvarez International

Weather History for MMAA - December, 2012

Change the Weather History Date:

Sunday, December 9, 2012

  Actual Average Record
Temperature  
Mean Temperature 79 °F -  
Max Temperature 89 °F 86 °F 94 °F (2015)
Min Temperature 69 °F 71 °F 69 °F (1999)
Cooling Degree Days 14    
Growing Degree Days 29 (Base 50)    
Moisture  
Dew Point 72 °F    
Average Humidity 75    
Maximum Humidity 94    
Minimum Humidity 43    
Precipitation  
Precipitation 0.00 in - - ()
Sea Level Pressure  
Sea Level Pressure 29.86 in    
Wind  
Wind Speed 2 mph ()    
Max Wind Speed 9 mph    
Max Gust Speed -    
Visibility 7.7 miles    
Events      
Averages and records for this station are not official NWS values.
T = Trace of Precipitation, MM = Missing Value Source: Averaged Metar Reports

Daily Weather History Graph

Daily Weather History Graph

Search for Another Location

Airport or City:

Trip Planner

Search our weather history database for the weather conditions in past years. The results will help you decide how hot, cold, wet, or windy it might be!

Date:

Astronomy

Dec. 09, 2012 Rise Set
Actual Time 6:56 AM CST 6:06 PM CST
Civil Twilight 6:33 AM CST 6:29 PM CST
Nautical Twilight 6:06 AM CST 6:56 PM CST
Astronomical Twilight 5:39 AM CST 7:23 PM CST
Moon 2:58 AM CST (12/9) 2:52 PM CST (12/9)
Length of Visible Light 11h 56m
Length of Day
11h 09m
Waning Crescent, 18% of the Moon is Illuminated
Dec 9
Waning Crescent
Dec 13
New
Dec 19
First Quarter
Dec 28
Full
Jan 4
Last Quarter

Hourly Weather History & Observations

Time (CST) Temp. Heat Index Dew Point Humidity Pressure Visibility Wind Dir Wind Speed Gust Speed Precip Events Conditions
12:42 AM 75.2 °F - 71.6 °F 89% 29.88 in 7.0 mi Calm Calm - N/A   Clear
1:42 AM 75.2 °F - 71.6 °F 89% 29.88 in 7.0 mi Calm Calm - N/A   Clear
2:45 AM 75.2 °F - 71.6 °F 89% 29.86 in 7.0 mi Calm Calm - N/A   Clear
2:50 AM 73 °F - 71 °F 91% 29.85 in 6 mi NNW 2.2 mph - -   Scattered Clouds
3:43 AM 75.2 °F - 71.6 °F 89% 29.86 in 7.0 mi Calm Calm - N/A   Clear
4:43 AM 75.2 °F - 73.4 °F 94% 29.43 in 7.0 mi Calm Calm - N/A   Clear
5:45 AM 75.2 °F - 71.6 °F 89% 29.84 in 7.0 mi Calm Calm - N/A   Clear
5:50 AM 71 °F - 67 °F 82% 29.86 in 6 mi WSW 2.2 mph - -   Scattered Clouds
6:42 AM 73.4 °F - 68.0 °F 83% 29.87 in 7.0 mi Calm Calm - N/A   Clear
7:44 AM 75.2 °F - 69.8 °F 83% 29.91 in 7.0 mi Calm Calm - N/A   Clear
8:42 AM 77.0 °F - 71.6 °F 83% 29.92 in 7.0 mi Calm Calm - N/A   Clear
8:45 AM 75 °F - 69 °F 75% 29.92 in 12 mi NNW 2.2 mph - -   Clear
9:42 AM 82.4 °F 88.2 °F 73.4 °F 74% 29.94 in 7.0 mi Calm Calm - N/A   Clear
10:42 AM 86.0 °F 95.1 °F 75.2 °F 70% 29.94 in 7.0 mi Calm Calm - N/A   Clear
11:42 AM 89.6 °F 102.2 °F 77.0 °F 66% 29.91 in 8.0 mi WSW 8.1 mph - N/A   Clear
11:45 AM 87 °F - 68 °F 43% 29.90 in 12 mi West 2.2 mph - -   Clear
12:47 PM 89.6 °F 102.2 °F 77.0 °F 66% 29.90 in 8.0 mi WSW 9.2 mph - N/A   Clear
1:49 PM 87.8 °F 95.6 °F 73.4 °F 62% 29.87 in 8.0 mi WSW 9.2 mph - N/A   Scattered Clouds
2:45 PM 85 °F - 72 °F 56% 29.83 in 12 mi WSW 4.5 mph - -   Clear
2:45 PM 89.6 °F 98.2 °F 73.4 °F 59% 29.80 in 8.0 mi SW 9.2 mph - N/A   Scattered Clouds
3:46 PM 87.8 °F 93.8 °F 71.6 °F 58% 29.83 in 8.0 mi SW 8.1 mph - N/A   Mostly Cloudy
4:45 PM 86.0 °F 91.8 °F 71.6 °F 62% 29.83 in 8.0 mi SW 9.2 mph - N/A   Mostly Cloudy
5:45 PM 82 °F - 72 °F 63% 29.85 in 12 mi West 2.2 mph - -   Scattered Clouds
5:45 PM 84.2 °F 90.9 °F 73.4 °F 70% 29.83 in 6.0 mi WSW 5.8 mph - N/A   Mostly Cloudy
6:42 PM 82.4 °F 87.2 °F 71.6 °F 70% 29.85 in 7.0 mi Calm Calm - N/A   Scattered Clouds
7:42 PM 82.4 °F 87.2 °F 71.6 °F 70% 29.87 in 7.0 mi Calm Calm - N/A   Scattered Clouds
8:42 PM 80.6 °F 84.6 °F 71.6 °F 74% 29.83 in 7.0 mi Calm Calm - N/A   Scattered Clouds
8:50 PM 76 °F - 71 °F 81% 29.90 in 6 mi West 2.2 mph - -  
9:42 PM 80.6 °F 84.6 °F 71.6 °F 74% 29.91 in 7.0 mi Calm Calm - N/A   Scattered Clouds
10:45 PM 80.6 °F 85.4 °F 73.4 °F 79% 29.92 in 7.0 mi Calm Calm - N/A   Partly Cloudy
11:45 PM 74 °F - 71 °F 87% 29.92 in 6 mi North 2.2 mph - -  
11:45 PM 78.8 °F - 73.4 °F 83% 29.92 in 7.0 mi Calm Calm - N/A   Partly Cloudy